| time (UTC) | temp C | wind direction | speed KPH | gust KPH | rain 1hr cm | rain 24hr cm | rain mn cm | humidity % | barometer mb |
| 20260507090217 | 17 | 25 | 8.0 | 17.7 | 0.00 | 0.03 | 0.00 | 79 | 1014.8 |
| 20260507085715 | 17 | 40 | 8.0 | 17.7 | 0.00 | 0.03 | 0.00 | 79 | 1014.8 |
| 20260507085215 | 17 | 13 | 8.0 | 19.3 | 0.00 | 0.03 | 0.00 | 79 | 1014.8 |
| 20260507084715 | 17 | 11 | 9.7 | 19.3 | 0.00 | 0.03 | 0.00 | 79 | 1014.8 |
| 20260507084215 | 17 | 310 | 8.0 | 17.7 | 0.00 | 0.03 | 0.00 | 79 | 1014.8 |
| 20260507083715 | 17 | 17 | 8.0 | 20.9 | 0.00 | 0.03 | 0.00 | 79 | 1014.8 |
| 20260507083216 | 17 | 41 | 8.0 | 20.9 | 0.00 | 0.03 | 0.00 | 79 | 1014.8 |
| 20260507082820 | 17 | 296 | 4.8 | 14.5 | 0.00 | 0.03 | 0.00 | 79 | 1014.7 |
| 20260507082720 | 17 | 321 | 4.8 | 14.5 | 0.00 | 0.03 | 0.00 | 79 | 1014.9 |
| 20260507082716 | 17 | 28 | 6.4 | 14.5 | 0.00 | 0.03 | 0.00 | 79 | 1014.9 |
| 20260507081218 | 17 | 42 | 6.4 | 14.5 | 0.00 | 0.03 | 0.00 | 79 | 1014.9 |
| 20260507081214 | 17 | 34 | 4.8 | 14.5 | 0.00 | 0.03 | 0.00 | 79 | 1015.1 |
| 20260507080817 | 17 | 18 | 6.4 | 16.1 | 0.00 | 0.03 | 0.00 | 79 | 1015.0 |
| 20260507075713 | 17 | 34 | 6.4 | 16.1 | 0.00 | 0.03 | 0.00 | 79 | 1014.9 |
| 20260507075213 | 17 | 36 | 6.4 | 17.7 | 0.00 | 0.03 | 0.00 | 79 | 1014.8 |
| 20260507074717 | 17 | 55 | 6.4 | 14.5 | 0.00 | 0.03 | 0.00 | 79 | 1014.8 |
| 20260507074713 | 17 | 337 | 8.0 | 17.7 | 0.00 | 0.03 | 0.00 | 79 | 1014.8 |
| 20260507074318 | 17 | 19 | 6.4 | 14.5 | 0.00 | 0.03 | 0.00 | 79 | 1014.9 |
| 20260507073217 | 17 | 355 | 4.8 | 16.1 | 0.00 | 0.03 | 0.00 | 79 | 1015.2 |
| 20260507073213 | 17 | 19 | 6.4 | 16.1 | 0.00 | 0.03 | 0.00 | 79 | 1015.1 |
| 20260507072213 | 18 | 344 | 4.8 | 14.5 | 0.00 | 0.03 | 0.00 | 79 | 1015.2 |
| 20260507071716 | 18 | 332 | 6.4 | 16.1 | 0.00 | 0.03 | 0.00 | 79 | 1015.4 |
| 20260507071711 | 18 | 36 | 6.4 | 16.1 | 0.00 | 0.03 | 0.00 | 79 | 1015.2 |
| 20260507070711 | 18 | 42 | 4.8 | 11.3 | 0.00 | 0.03 | 0.00 | 79 | 1015.4 |
| 20260507070211 | 18 | 346 | 3.2 | 11.3 | 0.00 | 0.03 | 0.00 | 79 | 1015.5 |
| 20260507065711 | 18 | 13 | 3.2 | 9.7 | 0.00 | 0.03 | 0.00 | 79 | 1015.4 |
| 20260507065211 | 18 | 59 | 6.4 | 16.1 | 0.00 | 0.03 | 0.00 | 79 | 1015.2 |
| 20260507064711 | 18 | 93 | 8.0 | 16.1 | 0.00 | 0.03 | 0.00 | 79 | 1015.2 |
| 20260507064211 | 18 | 45 | 8.0 | 17.7 | 0.00 | 0.03 | 0.00 | 79 | 1015.1 |
| 20260507063711 | 18 | 21 | 8.0 | 22.5 | 0.00 | 0.03 | 0.00 | 79 | 1014.9 |
| 20260507063211 | 18 | 348 | 6.4 | 22.5 | 0.00 | 0.03 | 0.00 | 79 | 1015.0 |
| 20260507062705 | 18 | 41 | 4.8 | 14.5 | 0.00 | 0.03 | 0.00 | 79 | 1015.0 |
| 20260507062205 | 18 | 27 | 3.2 | 9.7 | 0.00 | 0.03 | 0.00 | 79 | 1015.1 |
| 20260507061703 | 18 | 19 | 4.8 | 11.3 | 0.00 | 0.03 | 0.00 | 79 | 1015.1 |
| 20260507061203 | 18 | 28 | 4.8 | 14.5 | 0.00 | 0.03 | 0.00 | 79 | 1015.1 |
| 20260507060703 | 18 | 61 | 6.4 | 16.1 | 0.00 | 0.03 | 0.00 | 79 | 1014.9 |
| 20260507060204 | 18 | 62 | 6.4 | 19.3 | 0.00 | 0.03 | 0.00 | 79 | 1014.9 |
| 20260507055705 | 18 | 18 | 8.0 | 17.7 | 0.00 | 0.03 | 0.00 | 79 | 1014.8 |
| 20260507055701 | 18 | 36 | 6.4 | 19.3 | 0.00 | 0.03 | 0.00 | 79 | 1014.7 |
| 20260507054659 | 18 | 315 | 8.0 | 20.9 | 0.00 | 0.03 | 0.00 | 79 | 1014.7 |
| 20260507054200 | 18 | 101 | 6.4 | 20.9 | 0.00 | 0.03 | 0.00 | 79 | 1014.5 |
| 20260507053659 | 18 | 18 | 8.0 | 19.3 | 0.00 | 0.03 | 0.00 | 79 | 1014.4 |
| 20260507053157 | 18 | 34 | 9.7 | 24.1 | 0.00 | 0.03 | 0.00 | 79 | 1014.3 |
| 20260507052656 | 18 | 19 | 9.7 | 29.0 | 0.00 | 0.03 | 0.00 | 79 | 1014.3 |
| 20260507052155 | 18 | 28 | 11.3 | 29.0 | 0.00 | 0.03 | 0.00 | 79 | 1014.0 |
| 20260507051655 | 18 | 69 | 9.7 | 25.7 | 0.00 | 0.03 | 0.00 | 79 | 1014.1 |
| 20260507051159 | 18 | 341 | 9.7 | 19.3 | 0.00 | 0.03 | 0.00 | 79 | 1013.5 |
| 20260507051154 | 18 | 315 | 9.7 | 20.9 | 0.00 | 0.03 | 0.00 | 79 | 1013.7 |
| 20260507050159 | 18 | 40 | 8.0 | 22.5 | 0.00 | 0.03 | 0.00 | 79 | 1013.9 |
| 20260507050154 | 18 | 23 | 8.0 | 22.5 | 0.00 | 0.03 | 0.03 | 79 | 1014.0 |
| 20260507045152 | 18 | 19 | 8.0 | 17.7 | 0.00 | 0.03 | 0.03 | 79 | 1014.1 |
| 20260507044651 | 18 | 19 | 8.0 | 17.7 | 0.00 | 0.03 | 0.03 | 79 | 1013.9 |
| 20260507044152 | 18 | 34 | 8.0 | 20.9 | 0.00 | 0.03 | 0.03 | 79 | 1014.0 |
| 20260507043654 | 18 | 27 | 8.0 | 20.9 | 0.00 | 0.03 | 0.03 | 79 | 1014.1 |
| 20260507043650 | 18 | 40 | 8.0 | 17.7 | 0.00 | 0.03 | 0.03 | 79 | 1014.4 |
| 20260507042646 | 18 | 30 | 6.4 | 17.7 | 0.00 | 0.03 | 0.03 | 79 | 1014.4 |
| 20260507042145 | 18 | 355 | 6.4 | 17.7 | 0.00 | 0.03 | 0.03 | 79 | 1014.5 |
| 20260507041646 | 18 | 9 | 8.0 | 17.7 | 0.00 | 0.03 | 0.03 | 79 | 1014.3 |
| 20260507041148 | 18 | 26 | 9.7 | 17.7 | 0.00 | 0.03 | 0.03 | 79 | 1014.2 |
| 20260507041144 | 18 | 342 | 8.0 | 17.7 | 0.00 | 0.03 | 0.03 | 79 | 1014.0 |
| 20260507040143 | 18 | 39 | 8.0 | 17.7 | 0.00 | 0.03 | 0.03 | 79 | 1013.7 |
| 20260507035643 | 18 | 32 | 8.0 | 17.7 | 0.00 | 0.03 | 0.03 | 79 | 1013.6 |
| 20260507035143 | 18 | 339 | 6.4 | 16.1 | 0.00 | 0.03 | 0.03 | 79 | 1013.6 |
| 20260507034642 | 18 | 325 | 6.4 | 16.1 | 0.00 | 0.03 | 0.03 | 79 | 1013.4 |
| 20260507034143 | 18 | 55 | 8.0 | 19.3 | 0.00 | 0.03 | 0.03 | 79 | 1013.1 |
| 20260507033644 | 18 | 38 | 8.0 | 20.9 | 0.00 | 0.03 | 0.03 | 79 | 1013.2 |
| 20260507033143 | 18 | 59 | 8.0 | 20.9 | 0.00 | 0.03 | 0.03 | 79 | 1013.2 |
| 20260507032643 | 18 | 18 | 9.7 | 20.9 | 0.00 | 0.03 | 0.03 | 79 | 1013.3 |
| 20260507032144 | 18 | 21 | 11.3 | 25.7 | 0.00 | 0.03 | 0.03 | 78 | 1013.3 |
| 20260507031645 | 18 | 316 | 9.7 | 19.3 | 0.00 | 0.03 | 0.03 | 78 | 1013.1 |
| 20260507031641 | 18 | 29 | 11.3 | 25.7 | 0.00 | 0.03 | 0.03 | 78 | 1013.1 |
| 20260507030641 | 18 | 36 | 8.0 | 30.6 | 0.00 | 0.03 | 0.03 | 78 | 1013.2 |
| 20260507030145 | 18 | 20 | 8.0 | 22.5 | 0.00 | 0.03 | 0.03 | 78 | 1013.1 |
| 20260507030141 | 18 | 349 | 9.7 | 30.6 | 0.00 | 0.03 | 0.03 | 78 | 1013.3 |
| 20260507025145 | 18 | 320 | 8.0 | 19.3 | 0.00 | 0.03 | 0.03 | 78 | 1013.0 |
| 20260507025141 | 18 | 16 | 8.0 | 19.3 | 0.00 | 0.03 | 0.03 | 78 | 1013.2 |
| 20260507024141 | 18 | 26 | 8.0 | 16.1 | 0.00 | 0.03 | 0.03 | 78 | 1013.0 |
| 20260507023638 | 18 | 32 | 6.4 | 16.1 | 0.00 | 0.03 | 0.03 | 78 | 1013.0 |
| 20260507023137 | 19 | 42 | 6.4 | 19.3 | 0.00 | 0.03 | 0.03 | 77 | 1013.0 |
| 20260507022638 | 19 | 326 | 9.7 | 19.3 | 0.00 | 0.03 | 0.03 | 77 | 1013.0 |
| 20260507022634 | 19 | 350 | 9.7 | 20.9 | 0.00 | 0.03 | 0.03 | 77 | 1012.8 |
| 20260507021633 | 19 | 19 | 9.7 | 20.9 | 0.00 | 0.03 | 0.03 | 77 | 1012.8 |
| 20260507021136 | 19 | 314 | 8.0 | 19.3 | 0.00 | 0.03 | 0.03 | 77 | 1012.8 |
| 20260507021132 | 19 | 347 | 11.3 | 24.1 | 0.00 | 0.03 | 0.03 | 76 | 1012.7 |
| 20260507020734 | 19 | 355 | 9.7 | 24.1 | 0.00 | 0.03 | 0.03 | 77 | 1012.7 |
| 20260507015627 | 19 | 80 | 9.7 | 22.5 | 0.00 | 0.03 | 0.03 | 76 | 1012.5 |
| 20260507015130 | 20 | 29 | 9.7 | 22.5 | 0.00 | 0.03 | 0.03 | 76 | 1012.4 |
| 20260507015126 | 20 | 21 | 9.7 | 20.9 | 0.00 | 0.03 | 0.03 | 76 | 1012.4 |
| 20260507014129 | 20 | 15 | 9.7 | 22.5 | 0.00 | 0.03 | 0.03 | 75 | 1012.2 |
| 20260507014125 | 20 | 333 | 11.3 | 24.1 | 0.00 | 0.03 | 0.03 | 75 | 1012.1 |
| 20260507013128 | 20 | 355 | 11.3 | 22.5 | 0.00 | 0.03 | 0.03 | 75 | 1011.5 |
| 20260507013124 | 20 | 15 | 12.9 | 24.1 | 0.00 | 0.03 | 0.03 | 75 | 1011.5 |
| 20260507012121 | 20 | 344 | 11.3 | 22.5 | 0.00 | 0.03 | 0.03 | 74 | 1011.8 |
| 20260507011622 | 20 | 10 | 8.0 | 16.1 | 0.00 | 0.03 | 0.03 | 74 | 1011.7 |
| 20260507011124 | 21 | 46 | 8.0 | 16.1 | 0.00 | 0.03 | 0.03 | 74 | 1011.5 |
| 20260507011120 | 21 | 32 | 9.7 | 17.7 | 0.00 | 0.03 | 0.03 | 74 | 1011.7 |
| 20260507010119 | 21 | 24 | 9.7 | 25.7 | 0.00 | 0.03 | 0.03 | 73 | 1011.6 |
| 20260507005619 | 21 | 341 | 9.7 | 25.7 | 0.00 | 0.03 | 0.03 | 72 | 1011.7 |
| 20260507005120 | 21 | 318 | 9.7 | 19.3 | 0.00 | 0.03 | 0.03 | 72 | 1011.5 |
| 20260507004623 | 22 | 28 | 9.7 | 25.7 | 0.00 | 0.03 | 0.03 | 71 | 1011.1 |
| 20260507004619 | 21 | 34 | 9.7 | 20.9 | 0.00 | 0.03 | 0.03 | 72 | 1011.2 |
| 20260507003619 | 22 | 17 | 9.7 | 25.7 | 0.00 | 0.03 | 0.03 | 71 | 1011.2 |
| 20260507003120 | 22 | 327 | 9.7 | 24.1 | 0.00 | 0.03 | 0.03 | 71 | 1011.1 |
| 20260507002619 | 22 | 338 | 9.7 | 22.5 | 0.00 | 0.03 | 0.03 | 70 | 1011.1 |
| 20260507002119 | 23 | 18 | 9.7 | 22.5 | 0.00 | 0.03 | 0.03 | 70 | 1010.9 |
| 20260507001620 | 23 | 23 | 11.3 | 22.5 | 0.00 | 0.03 | 0.03 | 70 | 1011.0 |
| 20260507001119 | 23 | 350 | 11.3 | 24.1 | 0.00 | 0.03 | 0.03 | 70 | 1011.0 |
| 20260507000624 | 23 | 343 | 11.3 | 25.7 | 0.00 | 0.03 | 0.03 | 69 | 1010.8 |
| 20260507000620 | 23 | 11 | 11.3 | 24.1 | 0.00 | 0.03 | 0.03 | 69 | 1011.1 |
| 20260507000223 | 23 | 286 | 11.3 | 25.7 | 0.00 | 0.03 | 0.03 | 68 | 1010.8 |
| 20260506235724 | 24 | 340 | 11.3 | 20.9 | 0.00 | 0.03 | 0.03 | 68 | 1010.6 |
| 20260506234620 | 24 | 303 | 11.3 | 32.2 | 0.00 | 0.03 | 0.03 | 68 | 1010.4 |
| 20260506234119 | 24 | 334 | 11.3 | 32.2 | 0.00 | 0.03 | 0.03 | 67 | 1010.3 |
| 20260506233619 | 25 | 336 | 11.3 | 24.1 | 0.00 | 0.03 | 0.03 | 66 | 1010.4 |
| 20260506233124 | 25 | 355 | 12.9 | 24.1 | 0.00 | 0.03 | 0.03 | 64 | 1010.2 |
| 20260506233120 | 25 | 345 | 12.9 | 24.1 | 0.00 | 0.03 | 0.03 | 66 | 1010.4 |
| 20260506232119 | 26 | 323 | 12.9 | 24.1 | 0.00 | 0.03 | 0.03 | 63 | 1010.1 |
| 20260506231620 | 26 | 30 | 11.3 | 24.1 | 0.00 | 0.03 | 0.03 | 65 | 1009.9 |
| 20260506231119 | 27 | 24 | 11.3 | 22.5 | 0.00 | 0.03 | 0.03 | 66 | 1009.8 |
| 20260506230619 | 27 | 45 | 11.3 | 20.9 | 0.00 | 0.03 | 0.03 | 66 | 1009.8 |
| 20260506230120 | 27 | 51 | 12.9 | 22.5 | 0.00 | 0.03 | 0.03 | 66 | 1009.7 |
| 20260506225620 | 27 | 47 | 11.3 | 24.1 | 0.00 | 0.03 | 0.03 | 66 | 1009.6 |
| 20260506225119 | 27 | 55 | 9.7 | 24.1 | 0.00 | 0.03 | 0.03 | 66 | 1009.6 |
| 20260506224620 | 27 | 34 | 8.0 | 25.7 | 0.00 | 0.03 | 0.03 | 67 | 1009.6 |
| 20260506224119 | 27 | 78 | 9.7 | 25.7 | 0.00 | 0.03 | 0.03 | 67 | 1009.7 |
| 20260506223620 | 27 | 32 | 11.3 | 22.5 | 0.00 | 0.03 | 0.03 | 67 | 1009.6 |
| 20260506223119 | 28 | 13 | 9.7 | 22.5 | 0.00 | 0.03 | 0.03 | 66 | 1009.4 |
| 20260506222624 | 28 | 313 | 9.7 | 22.5 | 0.00 | 0.03 | 0.03 | 66 | 1009.4 |
| 20260506222620 | 28 | 72 | 9.7 | 20.9 | 0.00 | 0.03 | 0.03 | 66 | 1009.4 |
| 20260506221619 | 28 | 13 | 11.3 | 22.5 | 0.00 | 0.03 | 0.03 | 66 | 1009.5 |
| 20260506221118 | 28 | 18 | 12.9 | 22.5 | 0.00 | 0.03 | 0.03 | 66 | 1009.3 |
| 20260506220617 | 28 | 40 | 11.3 | 22.5 | 0.00 | 0.03 | 0.03 | 66 | 1009.4 |
| 20260506220118 | 28 | 33 | 9.7 | 24.1 | 0.00 | 0.03 | 0.03 | 65 | 1009.3 |
| 20260506215618 | 28 | 11 | 11.3 | 24.1 | 0.00 | 0.03 | 0.03 | 64 | 1009.2 |
| 20260506215117 | 29 | 350 | 9.7 | 25.7 | 0.00 | 0.03 | 0.03 | 62 | 1009.1 |
| 20260506214618 | 31 | 333 | 4.8 | 25.7 | 0.00 | 0.03 | 0.03 | 58 | 1009.1 |
| 20260506214115 | 31 | 78 | 1.6 | 9.7 | 0.00 | 0.03 | 0.03 | 58 | 1009.0 |
| 20260506213618 | 31 | 313 | 3.2 | 9.7 | 0.00 | 0.03 | 0.03 | 59 | 1009.0 |
| 20260506213614 | 31 | 11 | 3.2 | 9.7 | 0.00 | 0.03 | 0.03 | 58 | 1009.1 |
| 20260506212613 | 31 | 119 | 3.2 | 9.7 | 0.00 | 0.03 | 0.03 | 58 | 1009.2 |
| 20260506212114 | 31 | 167 | 3.2 | 9.7 | 0.00 | 0.03 | 0.03 | 58 | 1009.2 |
| 20260506211612 | 31 | 165 | 1.6 | 8.0 | 0.00 | 0.03 | 0.03 | 58 | 1009.1 |
| 20260506211112 | 31 | 32 | 1.6 | 8.0 | 0.00 | 0.03 | 0.03 | 57 | 1009.3 |
| 20260506210615 | 31 | 55 | 1.6 | 6.4 | 0.00 | 0.03 | 0.03 | 58 | 1009.3 |
| 20260506210611 | 31 | 40 | 1.6 | 6.4 | 0.00 | 0.03 | 0.03 | 56 | 1009.4 |
| 20260506205803 | 31 | 101 | 3.2 | 11.3 | 0.00 | 0.03 | 0.03 | 58 | 1009.4 |
| 20260506205610 | 32 | 52 | 3.2 | 11.3 | 0.00 | 0.03 | 0.03 | 58 | 1009.4 |
| 20260506205406 | 32 | 121 | 3.2 | 11.3 | 0.00 | 0.03 | 0.03 | 57 | 1009.5 |
| 20260506205257 | 31 | 55 | 1.6 | 9.7 | 0.00 | 0.03 | 0.03 | 59 | 1009.5 |
| 20260506205253 | 32 | 57 | 1.6 | 9.7 | 0.00 | 0.03 | 0.03 | 57 | 1009.6 |
| 20260506203605 | 32 | 121 | 3.2 | 11.3 | 0.00 | 0.03 | 0.03 | 57 | 1009.5 |
| 20260506203106 | 32 | 102 | 3.2 | 11.3 | 0.00 | 0.03 | 0.03 | 58 | 1009.6 |
| 20260506202604 | 32 | 143 | 1.6 | 8.0 | 0.00 | 0.03 | 0.03 | 57 | 1009.6 |
| 20260506202103 | 32 | 138 | 1.6 | 8.0 | 0.00 | 0.03 | 0.03 | 57 | 1009.6 |
| 20260506201604 | 32 | 142 | 1.6 | 8.0 | 0.00 | 0.03 | 0.03 | 60 | 1009.7 |
| 20260506201103 | 31 | 129 | 1.6 | 6.4 | 0.00 | 0.03 | 0.03 | 62 | 1009.8 |
| 20260506200602 | 30 | 142 | 1.6 | 6.4 | 0.00 | 0.03 | 0.03 | 64 | 1009.9 |
| 20260506195604 | 30 | 74 | 3.2 | 9.7 | 0.00 | 0.03 | 0.03 | 63 | 1010.1 |
| 20260506195600 | 30 | 74 | 1.6 | 8.0 | 0.00 | 0.03 | 0.03 | 62 | 1010.0 |
| 20260506194558 | 31 | 9 | 3.2 | 9.7 | 0.00 | 0.03 | 0.03 | 63 | 1010.2 |
| 20260506194102 | 31 | 214 | 1.6 | 6.4 | 0.00 | 0.03 | 0.03 | 63 | 1010.1 |
| 20260506194058 | 31 | 119 | 1.6 | 9.7 | 0.00 | 0.03 | 0.03 | 63 | 1010.1 |
| 20260506193058 | 30 | 169 | 1.6 | 8.0 | 0.00 | 0.03 | 0.03 | 66 | 1010.1 |
| 20260506192555 | 30 | 163 | 3.2 | 8.0 | 0.00 | 0.03 | 0.03 | 64 | 1010.2 |
| 20260506192054 | 30 | 105 | 3.2 | 12.9 | 0.00 | 0.03 | 0.03 | 64 | 1010.3 |
| 20260506191554 | 30 | 92 | 3.2 | 12.9 | 0.00 | 0.03 | 0.03 | 65 | 1010.3 |
| 20260506191057 | 30 | 103 | 3.2 | 11.3 | 0.00 | 0.03 | 0.03 | 66 | 1010.3 |
| 20260506191053 | 30 | 140 | 3.2 | 11.3 | 0.00 | 0.03 | 0.03 | 67 | 1010.3 |
| 20260506190054 | 30 | 126 | 1.6 | 8.0 | 0.00 | 0.03 | 0.03 | 67 | 1010.4 |
| 20260506185554 | 29 | 104 | 1.6 | 8.0 | 0.00 | 0.03 | 0.03 | 68 | 1010.5 |
| 20260506185052 | 29 | 78 | 3.2 | 9.7 | 0.00 | 0.03 | 0.03 | 68 | 1010.5 |
| 20260506184552 | 29 | 69 | 1.6 | 11.3 | 0.00 | 0.03 | 0.03 | 68 | 1010.6 |
| 20260506184052 | 29 | 166 | 3.2 | 11.3 | 0.00 | 0.03 | 0.03 | 70 | 1010.6 |
| 20260506183552 | 29 | 128 | 3.2 | 11.3 | 0.00 | 0.03 | 0.03 | 72 | 1010.7 |
| 20260506183052 | 28 | 88 | 1.6 | 11.3 | 0.00 | 0.03 | 0.03 | 71 | 1010.8 |
| 20260506182550 | 28 | 128 | 1.6 | 9.7 | 0.00 | 0.03 | 0.03 | 72 | 1010.9 |
| 20260506182050 | 28 | 111 | 3.2 | 12.9 | 0.00 | 0.03 | 0.03 | 73 | 1011.0 |
| 20260506181553 | 27 | 107 | 3.2 | 6.4 | 0.00 | 0.03 | 0.03 | 74 | 1011.1 |
| 20260506181549 | 28 | 39 | 1.6 | 12.9 | 0.00 | 0.03 | 0.03 | 73 | 1011.0 |
| 20260506181154 | 27 | 349 | 3.2 | 12.9 | 0.00 | 0.03 | 0.03 | 74 | 1011.1 |
| 20260506180052 | 27 | 68 | 3.2 | 9.7 | 0.00 | 0.03 | 0.03 | 77 | 1011.1 |
| 20260506180048 | 27 | 82 | 3.2 | 12.9 | 0.00 | 0.03 | 0.03 | 75 | 1011.2 |
| 20260506175652 | 27 | 76 | 1.6 | 8.0 | 0.00 | 0.03 | 0.03 | 76 | 1011.2 |
| 20260506174549 | 26 | 22 | 1.6 | 9.7 | 0.00 | 0.03 | 0.03 | 76 | 1011.2 |
| 20260506174545 | 26 | 355 | 1.6 | 9.7 | 0.00 | 0.03 | 0.03 | 77 | 1011.3 |
| 20260506173548 | 26 | 34 | 0.0 | 8.0 | 0.00 | 0.03 | 0.03 | 80 | 1011.3 |
| 20260506173544 | 26 | 45 | 1.6 | 8.0 | 0.00 | 0.03 | 0.03 | 78 | 1011.3 |
| 20260506172544 | 26 | 36 | 0.0 | 3.2 | 0.00 | 0.03 | 0.03 | 80 | 1011.3 |
| 20260506172044 | 26 | 36 | 0.0 | 0.0 | 0.00 | 0.03 | 0.03 | 80 | 1011.3 |
| 20260506171543 | 26 | 36 | 0.0 | 0.0 | 0.00 | 0.03 | 0.03 | 80 | 1011.3 |
| 20260506171042 | 25 | 36 | 0.0 | 0.0 | 0.00 | 0.03 | 0.03 | 81 | 1011.3 |
| 20260506170541 | 25 | 36 | 0.0 | 6.4 | 0.00 | 0.03 | 0.03 | 83 | 1011.3 |
| 20260506170040 | 25 | 36 | 1.6 | 6.4 | 0.00 | 0.03 | 0.03 | 82 | 1011.3 |
| 20260506165540 | 25 | 36 | 1.6 | 6.4 | 0.00 | 0.03 | 0.03 | 83 | 1011.4 |
| 20260506165043 | 25 | 37 | 1.6 | 6.4 | 0.00 | 0.03 | 0.03 | 84 | 1011.4 |
| 20260506165038 | 25 | 37 | 0.0 | 3.2 | 0.03 | 0.03 | 0.03 | 84 | 1011.4 |
| 20260506164037 | 25 | 36 | 0.0 | 3.2 | 0.03 | 0.03 | 0.03 | 85 | 1011.3 |
| 20260506163538 | 24 | 36 | 1.6 | 3.2 | 0.03 | 0.03 | 0.03 | 86 | 1011.3 |
| 20260506163036 | 24 | 36 | 1.6 | 6.4 | 0.03 | 0.03 | 0.03 | 86 | 1011.3 |
| 20260506162534 | 24 | 26 | 1.6 | 6.4 | 0.03 | 0.03 | 0.03 | 86 | 1011.3 |
| 20260506162034 | 23 | 54 | 1.6 | 6.4 | 0.03 | 0.03 | 0.03 | 87 | 1011.3 |
| 20260506161533 | 23 | 46 | 3.2 | 6.4 | 0.03 | 0.03 | 0.03 | 88 | 1011.3 |
| 20260506161034 | 23 | 64 | 3.2 | 6.4 | 0.03 | 0.03 | 0.03 | 88 | 1011.2 |
| 20260506160538 | 23 | 85 | 1.6 | 9.7 | 0.03 | 0.03 | 0.03 | 87 | 1011.0 |
| 20260506160534 | 23 | 51 | 3.2 | 9.7 | 0.03 | 0.03 | 0.03 | 88 | 1011.1 |
| 20260506155538 | 23 | 58 | 3.2 | 6.4 | 0.03 | 0.03 | 0.03 | 86 | 1011.1 |
| 20260506155534 | 23 | 59 | 1.6 | 6.4 | 0.03 | 0.03 | 0.03 | 87 | 1011.1 |
| 20260506154534 | 24 | 42 | 3.2 | 9.7 | 0.00 | 0.00 | 0.00 | 85 | 1011.0 |
| 20260506154031 | 24 | 69 | 1.6 | 9.7 | 0.00 | 0.00 | 0.00 | 84 | 1011.0 |
| 20260506153532 | 24 | 44 | 1.6 | 8.0 | 0.00 | 0.00 | 0.00 | 83 | 1010.9 |
| 20260506153032 | 25 | 50 | 1.6 | 6.4 | 0.00 | 0.00 | 0.00 | 83 | 1010.8 |
| 20260506152531 | 25 | 56 | 1.6 | 6.4 | 0.00 | 0.00 | 0.00 | 83 | 1010.8 |
| 20260506152032 | 25 | 54 | 1.6 | 3.2 | 0.00 | 0.00 | 0.00 | 83 | 1010.6 |
| 20260506151532 | 25 | 54 | 1.6 | 9.7 | 0.00 | 0.00 | 0.00 | 83 | 1010.6 |
| 20260506151032 | 25 | 65 | 1.6 | 9.7 | 0.00 | 0.00 | 0.00 | 82 | 1010.5 |
| 20260506150530 | 25 | 48 | 1.6 | 6.4 | 0.00 | 0.00 | 0.00 | 82 | 1010.5 |
| 20260506150028 | 25 | 27 | 1.6 | 6.4 | 0.00 | 0.00 | 0.00 | 83 | 1010.4 |
| 20260506145528 | 25 | 27 | 1.6 | 6.4 | 0.00 | 0.00 | 0.00 | 83 | 1010.4 |
| 20260506145029 | 24 | 119 | 1.6 | 3.2 | 0.00 | 0.00 | 0.00 | 83 | 1010.4 |
| 20260506144528 | 24 | 119 | 1.6 | 3.2 | 0.00 | 0.00 | 0.00 | 83 | 1010.4 |
| 20260506144027 | 24 | 126 | 0.0 | 1.6 | 0.00 | 0.00 | 0.00 | 83 | 1010.3 |
| 20260506143528 | 24 | 126 | 0.0 | 6.4 | 0.00 | 0.00 | 0.00 | 83 | 1010.3 |
| 20260506143028 | 24 | 126 | 0.0 | 6.4 | 0.00 | 0.00 | 0.00 | 84 | 1010.2 |
| 20260506142528 | 24 | 131 | 1.6 | 8.0 | 0.00 | 0.00 | 0.00 | 84 | 1010.1 |
| 20260506142032 | 24 | 121 | 1.6 | 8.0 | 0.00 | 0.00 | 0.00 | 84 | 1009.9 |
| 20260506142028 | 24 | 110 | 1.6 | 8.0 | 0.00 | 0.00 | 0.00 | 84 | 1009.9 |
| 20260506141028 | 24 | 261 | 0.0 | 1.6 | 0.00 | 0.00 | 0.00 | 85 | 1010.0 |
| 20260506140526 | 24 | 261 | 1.6 | 6.4 | 0.00 | 0.00 | 0.00 | 85 | 1009.9 |
| 20260506140026 | 24 | 126 | 1.6 | 6.4 | 0.00 | 0.00 | 0.00 | 85 | 1009.7 |
| 20260506135526 | 24 | 131 | 0.0 | 6.4 | 0.00 | 0.00 | 0.00 | 85 | 1009.6 |
| 20260506135025 | 23 | 132 | 0.0 | 6.4 | 0.00 | 0.00 | 0.00 | 86 | 1009.5 |
| 20260506134526 | 23 | 142 | 1.6 | 8.0 | 0.00 | 0.00 | 0.00 | 86 | 1009.4 |
| 20260506134025 | 23 | 114 | 1.6 | 8.0 | 0.00 | 0.00 | 0.00 | 86 | 1009.2 |
| 20260506133526 | 23 | 119 | 1.6 | 8.0 | 0.00 | 0.00 | 0.00 | 86 | 1009.2 |
| 20260506133026 | 23 | 121 | 1.6 | 8.0 | 0.00 | 0.00 | 0.00 | 86 | 1009.1 |
| 20260506132524 | 23 | 116 | 1.6 | 8.0 | 0.00 | 0.00 | 0.00 | 86 | 1009.1 |
| 20260506132028 | 23 | 108 | 1.6 | 6.4 | 0.00 | 0.00 | 0.00 | 86 | 1009.1 |
| 20260506132024 | 23 | 113 | 1.6 | 6.4 | 0.00 | 0.00 | 0.00 | 86 | 1009.2 |
| 20260506131024 | 23 | 105 | 1.6 | 11.3 | 0.00 | 0.00 | 0.00 | 87 | 1009.0 |
| 20260506130524 | 23 | 158 | 3.2 | 11.3 | 0.00 | 0.00 | 0.00 | 87 | 1008.9 |
| 20260506130024 | 23 | 127 | 3.2 | 11.3 | 0.00 | 0.00 | 0.00 | 87 | 1008.8 |
| 20260506125524 | 23 | 134 | 3.2 | 11.3 | 0.00 | 0.00 | 0.00 | 87 | 1008.8 |
| 20260506125024 | 23 | 111 | 3.2 | 9.7 | 0.00 | 0.00 | 0.00 | 87 | 1008.8 |
| 20260506124524 | 23 | 117 | 1.6 | 8.0 | 0.00 | 0.00 | 0.00 | 88 | 1008.9 |
| 20260506124024 | 23 | 127 | 1.6 | 9.7 | 0.00 | 0.00 | 0.00 | 88 | 1008.8 |
| 20260506123528 | 23 | 118 | 1.6 | 8.0 | 0.00 | 0.00 | 0.00 | 88 | 1008.9 |
| 20260506123524 | 23 | 120 | 1.6 | 9.7 | 0.00 | 0.00 | 0.00 | 88 | 1008.8 |
| 20260506122523 | 23 | 119 | 1.6 | 6.4 | 0.00 | 0.00 | 0.00 | 88 | 1008.8 |
| 20260506122023 | 23 | 134 | 1.6 | 6.4 | 0.00 | 0.00 | 0.00 | 88 | 1008.8 |
| 20260506121521 | 23 | 157 | 0.0 | 3.2 | 0.00 | 0.00 | 0.00 | 88 | 1008.9 |
| 20260506121019 | 23 | 118 | 1.6 | 8.0 | 0.00 | 0.00 | 0.00 | 88 | 1008.9 |
| 20260506120519 | 23 | 123 | 1.6 | 8.0 | 0.00 | 0.00 | 0.00 | 88 | 1008.9 |
| 20260506120019 | 23 | 125 | 1.6 | 8.0 | 0.00 | 0.00 | 0.00 | 88 | 1008.8 |
| 20260506115520 | 23 | 131 | 1.6 | 8.0 | 0.00 | 0.00 | 0.00 | 88 | 1008.8 |
| 20260506115017 | 23 | 118 | 1.6 | 8.0 | 0.00 | 0.00 | 0.00 | 88 | 1008.8 |
| 20260506114517 | 23 | 130 | 0.0 | 8.0 | 0.00 | 0.00 | 0.00 | 88 | 1008.8 |
| 20260506114018 | 23 | 108 | 0.0 | 3.2 | 0.00 | 0.00 | 0.00 | 88 | 1008.8 |
| 20260506113515 | 23 | 108 | 0.0 | 3.2 | 0.00 | 0.00 | 0.00 | 88 | 1008.8 |
| 20260506113017 | 23 | 108 | 0.0 | 3.2 | 0.00 | 0.00 | 0.00 | 87 | 1008.8 |
| 20260506112516 | 23 | 108 | 0.0 | 1.6 | 0.00 | 0.00 | 0.00 | 87 | 1008.8 |
| 20260506112015 | 23 | 108 | 0.0 | 1.6 | 0.00 | 0.00 | 0.00 | 87 | 1008.8 |
| 20260506111513 | 23 | 108 | 0.0 | 6.4 | 0.00 | 0.00 | 0.00 | 87 | 1008.8 |
| 20260506111012 | 23 | 108 | 0.0 | 6.4 | 0.00 | 0.00 | 0.00 | 87 | 1008.8 |
| 20260506110511 | 23 | 122 | 0.0 | 3.2 | 0.00 | 0.00 | 0.00 | 87 | 1008.8 |
| 20260506110009 | 23 | 123 | 0.0 | 1.6 | 0.00 | 0.00 | 0.00 | 87 | 1008.8 |
| 20260506105507 | 23 | 123 | 0.0 | 1.6 | 0.00 | 0.00 | 0.00 | 87 | 1008.8 |
| 20260506105008 | 23 | 123 | 0.0 | 1.6 | 0.00 | 0.00 | 0.00 | 87 | 1008.8 |
| 20260506104508 | 23 | 123 | 0.0 | 8.0 | 0.00 | 0.00 | 0.00 | 87 | 1008.7 |
| 20260506104004 | 23 | 123 | 0.0 | 8.0 | 0.00 | 0.00 | 0.00 | 87 | 1008.6 |
| 20260506103503 | 23 | 133 | 1.6 | 8.0 | 0.00 | 0.00 | 0.00 | 87 | 1008.4 |
| 20260506103006 | 23 | 134 | 1.6 | 8.0 | 0.00 | 0.00 | 0.00 | 87 | 1008.4 |
| 20260506103002 | 23 | 134 | 0.0 | 8.0 | 0.00 | 0.00 | 0.00 | 87 | 1008.4 |
| 20260506102002 | 23 | 126 | 1.6 | 8.0 | 0.00 | 0.00 | 0.00 | 87 | 1008.6 |
| 20260506101459 | 23 | 125 | 1.6 | 6.4 | 0.00 | 0.00 | 0.00 | 87 | 1008.6 |
| 20260506101000 | 23 | 126 | 1.6 | 11.3 | 0.00 | 0.00 | 0.00 | 87 | 1008.4 |
| 20260506100459 | 23 | 154 | 1.6 | 11.3 | 0.00 | 0.00 | 0.00 | 87 | 1008.4 |
| 20260506100455 | 23 | 159 | 1.6 | 8.0 | 0.00 | 0.00 | 0.00 | 87 | 1008.4 |
| 20260506095454 | 23 | 170 | 1.6 | 8.0 | 0.00 | 0.00 | 0.00 | 87 | 1008.4 |
| 20260506094955 | 23 | 192 | 1.6 | 9.7 | 0.00 | 0.00 | 0.00 | 87 | 1008.4 |
| 20260506094951 | 23 | 190 | 1.6 | 9.7 | 0.00 | 0.00 | 0.00 | 87 | 1008.4 |
| 20260506093949 | 23 | 126 | 3.2 | 9.7 | 0.00 | 0.00 | 0.00 | 87 | 1008.4 |
| 20260506093452 | 23 | 163 | 3.2 | 9.7 | 0.00 | 0.00 | 0.00 | 87 | 1008.4 |
| 20260506093448 | 23 | 155 | 3.2 | 9.7 | 0.00 | 0.00 | 0.00 | 87 | 1008.4 |
| 20260506093051 | 23 | 123 | 1.6 | 9.7 | 0.00 | 0.00 | 0.00 | 87 | 1008.4 |
| 20260506091945 | 23 | 132 | 1.6 | 8.0 | 0.00 | 0.00 | 0.00 | 87 | 1008.4 |
| 20260506091444 | 23 | 155 | 1.6 | 8.0 | 0.00 | 0.00 | 0.00 | 87 | 1008.4 |
| 20260506090941 | 23 | 133 | 1.6 | 6.4 | 0.00 | 0.00 | 0.00 | 87 | 1008.4 |